"Pseudo-MPEC" for S001563

Created 2026 May 8 1:35:07 UT using Find_Orb

Click here for an explanation of pseudo-MPECs

 
 Astrometry: 
     S001563*KB2026 05 07.04443913 01 16.553-26 41 27.07   ~572o 21.3 VZNEOCPY05
     S001563 KB2026 05 07.05899313 01 16.231-26 41 29.75   ~572o 21.7 VZNEOCPY05
     S001563 KB2026 05 07.07352413 01 15.858-26 41 32.72   ~572o 21.3 VZNEOCPY05

Station data:
(Y05) SONEAR Wykrota-CEAMIG, Serra da Piedade  (S19.824251 W43.690000)
   Brazil.  Observer C. Jacques. 0.45-m f/2.9 reflector + CMO.

Orbital elements:  S001563
   Perihelion 2026 Feb 14.693076 +/- 55 TT = 16:38:01.7 (JD 2461086.193076)
Epoch 2026 May  7.0 TT = JDT 2461167.5   Earth MOID: 0.0842   Ju: 0.6096
M   4.073643306 +/- 22              (J2000 ecliptic)             AutoNEOCP
n   0.050102046 +/- 0.152           Peri.  113.094482 +/- 80
a   7.287284691 +/- 14.8            Node    17.069975 +/- 38
e   0.88493656 +/- 0.246            Incl.   18.671566 +/- 6
P  19.67200                H 20.64  G  0.15   U 11.5  SR
q 0.838500013 +/- 0.61    Q 13.73606936 +/- 110
From 3 observations 2026 May 7 (41.9 min); mean residual 0".13
Residuals in arcseconds: 
260507 Y05  .12-  .06-    260507 Y05  .24+  .12+    260507 Y05  .12-  .06-    

Ephemerides (geocentric):
Date (UTC) HH   RA             Dec           delta  r     elong  mag " sig PA
---- --------  ------------   ------------  ------ ------ -----  --- --------
2026 05 08 02  13 01 00.146   -26 44 42.18  .61610 1.5768 151.1 21.5  740  89
2026 05 08 03  13 00 59.559   -26 44 49.68  .61673 1.5773 151.0 21.5  765  89
2026 05 08 04  13 00 58.978   -26 44 57.14  .61737 1.5778 151.0 21.5  789  89
2026 05 08 05  13 00 58.402   -26 45 04.57  .61800 1.5783 151.0 21.5  813  89
2026 05 08 06  13 00 57.831   -26 45 11.98  .61864 1.5788 150.9 21.5  837  89
2026 05 08 07  13 00 57.266   -26 45 19.35  .61927 1.5793 150.9 21.5  861  89
2026 05 08 08  13 00 56.706   -26 45 26.70  .61991 1.5798 150.9 21.5  885  89
2026 05 08 09  13 00 56.152   -26 45 34.01  .62055 1.5803 150.8 21.5  909  89
2026 05 08 10  13 00 55.603   -26 45 41.30  .62119 1.5808 150.8 21.5  932  89
2026 05 08 11  13 00 55.060   -26 45 48.55  .62182 1.5813 150.8 21.5  955  89
2026 05 08 12  13 00 54.522   -26 45 55.78  .62246 1.5818 150.7 21.6  979  89
2026 05 08 13  13 00 53.990   -26 46 02.98  .62310 1.5823 150.7 21.6 1002  89
2026 05 08 14  13 00 53.462   -26 46 10.15  .62374 1.5828 150.7 21.6 1025  89
2026 05 08 15  13 00 52.941   -26 46 17.28  .62437 1.5833 150.6 21.6 1048  89
2026 05 08 16  13 00 52.424   -26 46 24.40  .62501 1.5838 150.6 21.6 1071  89
2026 05 08 17  13 00 51.914   -26 46 31.48  .62565 1.5843 150.6 21.6 1094  89
2026 05 08 18  13 00 51.408   -26 46 38.53  .62629 1.5849 150.5 21.6 1117  89
2026 05 08 19  13 00 50.908   -26 46 45.56  .62693 1.5854 150.5 21.6 1140  89
2026 05 08 20  13 00 50.413   -26 46 52.55  .62757 1.5859 150.5 21.6 1163  89
2026 05 08 21  13 00 49.924   -26 46 59.52  .62821 1.5864 150.4 21.6 1186  89
2026 05 08 22  13 00 49.439   -26 47 06.46  .62885 1.5869 150.4 21.6 1209  89
2026 05 08 23  13 00 48.961   -26 47 13.38  .62949 1.5874 150.4 21.6 1232  89
2026 05 09 00  13 00 48.487   -26 47 20.26  .63013 1.5879 150.3 21.6 1256  89
2026 05 09 01  13 00 48.019   -26 47 27.12  .63077 1.5884 150.3 21.6 1279  89
2026 05 09 02  13 00 47.556   -26 47 33.95  .63141 1.5889 150.3 21.6 1302  89
2026 05 09 03  13 00 47.098   -26 47 40.75  .63205 1.5894 150.2 21.6 1325  89
2026 05 09 04  13 00 46.646   -26 47 47.53  .63270 1.5899 150.2 21.6 1349  89
2026 05 09 05  13 00 46.199   -26 47 54.28  .63334 1.5904 150.2 21.6 1372  89
2026 05 09 06  13 00 45.757   -26 48 01.00  .63398 1.5909 150.1 21.6 1396  89
2026 05 09 07  13 00 45.321   -26 48 07.69  .63462 1.5914 150.1 21.6 1420  89
2026 05 09 08  13 00 44.889   -26 48 14.36  .63526 1.5919 150.1 21.6 1444  89
2026 05 09 09  13 00 44.463   -26 48 21.00  .63591 1.5924 150.1 21.6 1468  89
2026 05 09 10  13 00 44.043   -26 48 27.61  .63655 1.5929 150.0 21.6 1492  89
2026 05 09 11  13 00 43.627   -26 48 34.20  .63719 1.5934 150.0 21.6 1516  89
2026 05 09 12  13 00 43.217   -26 48 40.76  .63784 1.5939 150.0 21.6 1541  89
2026 05 09 13  13 00 42.812   -26 48 47.29  .63848 1.5944 149.9 21.6 1566  89
2026 05 09 14  13 00 42.412   -26 48 53.80  .63913 1.5949 149.9 21.6 1591  89
2026 05 09 15  13 00 42.017   -26 49 00.28  .63977 1.5954 149.9 21.6 1616  89
2026 05 09 16  13 00 41.627   -26 49 06.74  .64041 1.5960 149.8 21.6 1641  89
2026 05 09 17  13 00 41.243   -26 49 13.17  .64106 1.5965 149.8 21.6 1667  89
2026 05 09 18  13 00 40.864   -26 49 19.57  .64170 1.5970 149.8 21.7 1693  89
2026 05 09 19  13 00 40.490   -26 49 25.95  .64235 1.5975 149.7 21.7 1719  89
2026 05 09 20  13 00 40.121   -26 49 32.30  .64299 1.5980 149.7 21.7 1746  89
2026 05 09 21  13 00 39.757   -26 49 38.63  .64364 1.5985 149.7 21.7 1773  89
2026 05 09 22  13 00 39.398   -26 49 44.93  .64429 1.5990 149.6 21.7 1800  88
2026 05 09 23  13 00 39.045   -26 49 51.21  .64493 1.5995 149.6 21.7 1827  88
2026 05 10 00  13 00 38.696   -26 49 57.46  .64558 1.6000 149.6 21.7 1855  88
2026 05 10 01  13 00 38.353   -26 50 03.68  .64623 1.6005 149.5 21.7 1883  88